CFG3654 EDDL-LIMJ

Flight info

Callsign CFG3654
Flight time 1h 17m
Altitude 37000
Route DODEN7Z DODEN Y852 NATOR DCT TRA DCT RIPUS DCT GERSA DCT SOSON DCT ODINA DCT SRN DCT VOG/N0379F190 M858 RUCFO
Aircraft A320/M-SDE1FGHIJ1LORVWYZ/S

Departure

Time 2026-05-06 17:50
Airport Düsseldorf Airport (EDDL)

Arrival

Time 2026-05-06 19:08
Airport Genoa Cristoforo Colombo Airport (LIMJ)
Time Latitude Longitude Altitude Speed Heading
2026-05-06 17:21 51.27991 6.76163 129 ft 0 kts 104°
2026-05-06 17:42 51.27994 6.76140 126 ft 4 kts 104°
2026-05-06 17:42 51.28000 6.76105 128 ft 4 kts 98°
2026-05-06 17:42 51.27997 6.76069 127 ft 4 kts 41°
2026-05-06 17:42 51.27974 6.76051 126 ft 4 kts
2026-05-06 17:43 51.27948 6.76049 126 ft 4 kts
2026-05-06 17:43 51.27942 6.76049 128 ft 0 kts
2026-05-06 17:45 51.27951 6.76049 125 ft 4 kts
2026-05-06 17:46 51.27968 6.76048 128 ft 1 kts 357°
2026-05-06 17:46 51.27987 6.76047 123 ft 4 kts 360°
2026-05-06 17:46 51.28008 6.76047 125 ft 5 kts
2026-05-06 17:46 51.28062 6.76049 123 ft 7 kts
2026-05-06 17:47 51.28102 6.76012 124 ft 8 kts 291°
2026-05-06 17:47 51.28086 6.75931 135 ft 11 kts 235°
2026-05-06 17:47 51.28031 6.75814 126 ft 13 kts 233°
2026-05-06 17:47 51.27978 6.75703 129 ft 12 kts 233°
2026-05-06 17:48 51.27921 6.75580 126 ft 15 kts 233°
2026-05-06 17:48 51.27858 6.75449 123 ft 15 kts 232°
2026-05-06 17:48 51.27855 6.75345 125 ft 9 kts 315°
2026-05-06 17:48 51.27925 6.75282 122 ft 15 kts 333°
2026-05-06 17:49 51.28003 6.75285 125 ft 11 kts 51°
2026-05-06 17:49 51.28062 6.75411 122 ft 30 kts 53°
2026-05-06 17:49 51.28339 6.75993 129 ft 98 kts 52°
2026-05-06 17:49 51.28877 6.77115 136 ft 153 kts 52°
2026-05-06 17:50 51.29534 6.78494 693 ft 156 kts 52°
2026-05-06 17:50 51.30198 6.79883 1348 ft 156 kts 52°
2026-05-06 17:50 51.30852 6.81266 1842 ft 160 kts 51°
2026-05-06 17:50 51.31523 6.82678 2386 ft 159 kts 54°
2026-05-06 17:51 51.32191 6.84094 2920 ft 160 kts 52°
2026-05-06 17:51 51.32793 6.85597 3413 ft 164 kts 72°
2026-05-06 17:51 51.32825 6.87398 3907 ft 167 kts 95°
2026-05-06 17:51 51.32681 6.89321 4191 ft 184 kts 94°
2026-05-06 17:52 51.32536 6.91493 4375 ft 207 kts 95°
2026-05-06 17:52 51.32378 6.93917 4658 ft 229 kts 98°
2026-05-06 17:52 51.32026 6.96454 5281 ft 237 kts 104°
2026-05-06 17:52 51.31597 6.99019 6017 ft 240 kts 104°
2026-05-06 17:53 51.31161 7.01613 6761 ft 243 kts 104°
2026-05-06 17:53 51.30592 7.04138 7455 ft 247 kts 118°
2026-05-06 17:53 51.29715 7.06518 8161 ft 250 kts 121°
2026-05-06 17:53 51.28808 7.08969 8653 ft 266 kts 121°
2026-05-06 17:54 51.27826 7.11628 9033 ft 285 kts 121°
2026-05-06 17:54 51.26805 7.14393 9690 ft 292 kts 121°
2026-05-06 17:54 51.25767 7.17229 10234 ft 305 kts 121°
2026-05-06 17:54 51.24661 7.20262 10455 ft 327 kts 121°
2026-05-06 17:55 51.23477 7.23504 10763 ft 344 kts 121°
2026-05-06 17:55 51.22257 7.26835 11384 ft 351 kts 121°
2026-05-06 17:55 51.21018 7.30211 12062 ft 354 kts 121°
2026-05-06 17:55 51.19780 7.33578 12740 ft 358 kts 121°
2026-05-06 17:56 51.18505 7.36998 13404 ft 361 kts 124°
2026-05-06 17:56 51.16833 7.39991 14028 ft 362 kts 143°
2026-05-06 17:56 51.14693 7.42105 14652 ft 364 kts 151°
2026-05-06 17:56 51.12609 7.44428 15263 ft 368 kts 143°
2026-05-06 17:57 51.10586 7.46972 15873 ft 371 kts 142°
2026-05-06 17:57 51.08566 7.49562 16470 ft 374 kts 142°
2026-05-06 17:57 51.06538 7.52170 17039 ft 377 kts 142°
2026-05-06 17:57 51.04487 7.54791 17607 ft 380 kts 142°
2026-05-06 17:58 51.02405 7.57425 18159 ft 383 kts 143°
2026-05-06 17:58 51.00333 7.60020 18697 ft 385 kts 143°
2026-05-06 17:58 50.98210 7.62663 19228 ft 388 kts 143°
2026-05-06 17:58 50.96070 7.65317 19743 ft 392 kts 143°
2026-05-06 17:59 50.93911 7.67990 20268 ft 395 kts 143°
2026-05-06 17:59 50.91737 7.70679 20771 ft 398 kts 143°
2026-05-06 17:59 50.89547 7.73388 21268 ft 400 kts 143°
2026-05-06 17:59 50.87340 7.76115 21740 ft 403 kts 143°
2026-05-06 18:00 50.85144 7.78824 22184 ft 406 kts 143°
2026-05-06 18:00 50.82907 7.81582 22627 ft 409 kts 143°
2026-05-06 18:00 50.80655 7.84352 23050 ft 411 kts 143°
2026-05-06 18:00 50.78384 7.87139 23459 ft 414 kts 143°
2026-05-06 18:01 50.76100 7.89948 23849 ft 416 kts 143°
2026-05-06 18:01 50.73799 7.92774 24240 ft 419 kts 143°
2026-05-06 18:01 50.71518 7.95563 24613 ft 421 kts 143°
2026-05-06 18:01 50.69194 7.98399 24984 ft 422 kts 143°
2026-05-06 18:02 50.66865 8.01237 25390 ft 423 kts 143°
2026-05-06 18:02 50.64537 8.04072 25763 ft 424 kts 144°
2026-05-06 18:02 50.62080 8.06672 26122 ft 424 kts 153°
2026-05-06 18:02 50.59390 8.08579 26472 ft 424 kts 162°
2026-05-06 18:03 50.56528 8.09630 26808 ft 423 kts 175°
2026-05-06 18:03 50.53582 8.09964 27135 ft 424 kts 177°
2026-05-06 18:03 50.50631 8.10273 27450 ft 425 kts 177°
2026-05-06 18:03 50.47678 8.10574 27777 ft 427 kts 177°
2026-05-06 18:04 50.44739 8.10867 28080 ft 428 kts 177°
2026-05-06 18:04 50.41764 8.11158 28377 ft 429 kts 177°
2026-05-06 18:04 50.38772 8.11448 28661 ft 430 kts 177°
2026-05-06 18:04 50.35780 8.11734 28930 ft 431 kts 177°
2026-05-06 18:05 50.32784 8.12019 29193 ft 432 kts 177°
2026-05-06 18:05 50.29799 8.12306 29441 ft 433 kts 177°
2026-05-06 18:05 50.26793 8.12598 29670 ft 434 kts 176°
2026-05-06 18:05 50.23776 8.12894 29902 ft 435 kts 176°
2026-05-06 18:06 50.20753 8.13188 30128 ft 435 kts 176°
2026-05-06 18:06 50.17717 8.13480 30393 ft 435 kts 176°
2026-05-06 18:06 50.14696 8.13773 30669 ft 434 kts 176°
2026-05-06 18:06 50.11678 8.14068 30917 ft 434 kts 176°
2026-05-06 18:07 50.08656 8.14368 31177 ft 434 kts 176°
2026-05-06 18:07 50.05685 8.14667 31432 ft 434 kts 176°
2026-05-06 18:07 50.02667 8.14977 31679 ft 434 kts 176°
2026-05-06 18:07 49.99655 8.15287 31916 ft 434 kts 177°
2026-05-06 18:08 49.96649 8.15589 32171 ft 434 kts 177°
2026-05-06 18:08 49.93634 8.15888 32412 ft 433 kts 177°
2026-05-06 18:08 49.90624 8.16182 32654 ft 433 kts 177°
2026-05-06 18:08 49.87615 8.16474 32886 ft 433 kts 177°
2026-05-06 18:09 49.84594 8.16769 33109 ft 434 kts 177°
2026-05-06 18:09 49.81579 8.17068 33343 ft 433 kts 177°
2026-05-06 18:09 49.78560 8.17368 33580 ft 433 kts 177°
2026-05-06 18:09 49.75552 8.17667 33811 ft 433 kts 177°
2026-05-06 18:10 49.72548 8.17966 34033 ft 433 kts 177°
2026-05-06 18:10 49.69534 8.18269 34262 ft 433 kts 177°
2026-05-06 18:10 49.66533 8.18572 34508 ft 432 kts 177°
2026-05-06 18:10 49.63525 8.18870 34741 ft 433 kts 177°
2026-05-06 18:11 49.57528 8.19464 34833 ft 433 kts 178°
2026-05-06 18:11 49.51514 8.20049 34830 ft 433 kts 178°
2026-05-06 18:12 49.45491 8.20642 34825 ft 433 kts 178°
2026-05-06 18:12 49.39462 8.21227 34833 ft 433 kts 178°
2026-05-06 18:13 49.33444 8.21811 34831 ft 433 kts 178°
2026-05-06 18:13 49.27421 8.22394 34831 ft 433 kts 178°
2026-05-06 18:14 49.21415 8.22991 34826 ft 433 kts 178°
2026-05-06 18:14 49.15408 8.23575 34832 ft 432 kts 178°
2026-05-06 18:15 49.09431 8.24140 34831 ft 432 kts 178°
2026-05-06 18:15 49.03428 8.24713 34833 ft 432 kts 178°
2026-05-06 18:16 48.97422 8.25293 34834 ft 432 kts 178°
2026-05-06 18:16 48.91415 8.25837 34839 ft 432 kts 178°
2026-05-06 18:17 48.85396 8.26343 34843 ft 433 kts 178°
2026-05-06 18:17 48.79386 8.26846 34848 ft 433 kts 178°
2026-05-06 18:18 48.73402 8.27353 34852 ft 433 kts 178°
2026-05-06 18:18 48.67394 8.27867 34851 ft 432 kts 178°
2026-05-06 18:19 48.61391 8.28386 34852 ft 432 kts 178°
2026-05-06 18:19 48.55388 8.28902 34854 ft 432 kts 178°
2026-05-06 18:20 48.49374 8.29402 34855 ft 431 kts 178°
2026-05-06 18:20 48.43363 8.29894 34855 ft 431 kts 178°
2026-05-06 18:21 48.37399 8.30397 34857 ft 431 kts 178°
2026-05-06 18:21 48.31398 8.30907 34860 ft 431 kts 178°
2026-05-06 18:22 48.25393 8.31412 34863 ft 432 kts 178°
2026-05-06 18:22 48.19393 8.31926 34872 ft 432 kts 178°
2026-05-06 18:23 48.13417 8.33001 34877 ft 433 kts 173°
2026-05-06 18:23 48.07455 8.34441 34879 ft 433 kts 173°
2026-05-06 18:24 48.01544 8.35859 34884 ft 433 kts 173°
2026-05-06 18:24 47.95588 8.37301 34885 ft 433 kts 173°
2026-05-06 18:25 47.89623 8.38742 34892 ft 433 kts 173°
2026-05-06 18:25 47.83702 8.40168 34898 ft 433 kts 173°
2026-05-06 18:26 47.77741 8.41588 34906 ft 433 kts 173°
2026-05-06 18:26 47.71793 8.43008 34912 ft 433 kts 173°
2026-05-06 18:27 47.65876 8.44307 34917 ft 432 kts 175°
2026-05-06 18:27 47.59897 8.45181 34919 ft 431 kts 177°
2026-05-06 18:28 47.54931 8.45798 34922 ft 431 kts 177°
2026-05-06 18:28 47.48954 8.46609 34924 ft 430 kts 176°
2026-05-06 18:29 47.42989 8.47483 34928 ft 430 kts 176°
2026-05-06 18:29 47.37029 8.48383 34931 ft 430 kts 176°
2026-05-06 18:30 47.31097 8.49261 34934 ft 430 kts 176°
2026-05-06 18:30 47.25147 8.50131 34930 ft 430 kts 176°
2026-05-06 18:31 47.19192 8.50999 34927 ft 429 kts 176°
2026-05-06 18:31 47.13291 8.51857 34926 ft 429 kts 176°
2026-05-06 18:32 47.07336 8.52716 34929 ft 429 kts 176°
2026-05-06 18:32 47.01408 8.53573 34922 ft 428 kts 177°
2026-05-06 18:33 46.95474 8.54421 34919 ft 428 kts 176°
2026-05-06 18:33 46.89549 8.55272 34913 ft 427 kts 176°
2026-05-06 18:34 46.83656 8.56127 34915 ft 427 kts 176°
2026-05-06 18:34 46.77734 8.56980 34911 ft 426 kts 177°
2026-05-06 18:35 46.71847 8.57827 34913 ft 427 kts 177°
2026-05-06 18:35 46.65930 8.58666 34912 ft 426 kts 177°
2026-05-06 18:36 46.60006 8.59501 34916 ft 427 kts 177°
2026-05-06 18:36 46.54131 8.60334 34919 ft 426 kts 177°
2026-05-06 18:37 46.48215 8.61172 34915 ft 426 kts 177°
2026-05-06 18:37 46.42314 8.62240 34914 ft 427 kts 174°
2026-05-06 18:38 46.36446 8.63702 34913 ft 428 kts 173°
2026-05-06 18:38 46.30618 8.65198 34912 ft 427 kts 173°
2026-05-06 18:39 46.24752 8.66613 34904 ft 426 kts 174°
2026-05-06 18:40 46.15964 8.68656 34902 ft 426 kts 174°
2026-05-06 18:40 46.10108 8.70029 34902 ft 426 kts 174°
2026-05-06 18:41 46.04255 8.71408 34903 ft 426 kts 174°
2026-05-06 18:41 45.98436 8.72761 34904 ft 427 kts 174°
2026-05-06 18:42 45.92575 8.74109 34905 ft 427 kts 174°
2026-05-06 18:42 45.86712 8.75452 34905 ft 427 kts 174°
2026-05-06 18:43 45.80848 8.76796 34904 ft 426 kts 174°
2026-05-06 18:43 45.75035 8.78126 34901 ft 426 kts 174°
2026-05-06 18:44 45.69171 8.79466 34901 ft 427 kts 174°
2026-05-06 18:44 45.63313 8.80813 34649 ft 425 kts 174°
2026-05-06 18:44 45.60393 8.81519 33927 ft 425 kts 174°
2026-05-06 18:45 45.57479 8.82229 33217 ft 424 kts 174°
2026-05-06 18:45 45.54562 8.82934 32453 ft 424 kts 174°
2026-05-06 18:45 45.51641 8.83628 31691 ft 425 kts 174°
2026-05-06 18:45 45.48760 8.84296 31114 ft 420 kts 174°
2026-05-06 18:46 45.45884 8.84951 30541 ft 417 kts 174°
2026-05-06 18:46 45.43035 8.85602 29984 ft 412 kts 174°
2026-05-06 18:46 45.40215 8.86244 29415 ft 407 kts 174°
2026-05-06 18:46 45.37414 8.86878 28829 ft 406 kts 174°
2026-05-06 18:47 45.34626 8.87511 28290 ft 403 kts 174°
2026-05-06 18:47 45.31896 8.88133 27734 ft 400 kts 174°
2026-05-06 18:47 45.29159 8.88762 27173 ft 397 kts 174°
2026-05-06 18:47 45.26435 8.89380 26621 ft 394 kts 174°
2026-05-06 18:48 45.23735 8.89991 26072 ft 392 kts 174°
2026-05-06 18:48 45.21050 8.90607 25527 ft 389 kts 174°
2026-05-06 18:48 45.18383 8.91216 24988 ft 387 kts 174°
2026-05-06 18:48 45.15734 8.91818 24465 ft 384 kts 174°
2026-05-06 18:49 45.13100 8.92416 23933 ft 382 kts 174°
2026-05-06 18:49 45.10489 8.93008 23426 ft 379 kts 174°
2026-05-06 18:49 45.07879 8.93599 22935 ft 377 kts 174°
2026-05-06 18:49 45.05336 8.94172 22465 ft 374 kts 174°
2026-05-06 18:50 45.02732 8.94758 21973 ft 372 kts 174°
2026-05-06 18:50 45.00215 8.95324 21495 ft 370 kts 173°
2026-05-06 18:50 44.97673 8.95895 21012 ft 368 kts 173°
2026-05-06 18:50 44.95153 8.96463 20546 ft 366 kts 173°
2026-05-06 18:51 44.92648 8.97025 20067 ft 363 kts 173°
2026-05-06 18:51 44.90158 8.97582 19594 ft 361 kts 173°
2026-05-06 18:51 44.87679 8.98136 19120 ft 359 kts 173°
2026-05-06 18:51 44.85220 8.98691 18646 ft 356 kts 173°
2026-05-06 18:52 44.82800 8.99237 18183 ft 354 kts 173°
2026-05-06 18:52 44.80370 8.99783 17723 ft 353 kts 173°
2026-05-06 18:52 44.77950 9.00327 17271 ft 350 kts 173°
2026-05-06 18:52 44.75549 9.00872 16827 ft 348 kts 173°
2026-05-06 18:53 44.73157 9.01327 16391 ft 345 kts 176°
2026-05-06 18:53 44.70770 9.01649 15955 ft 343 kts 178°
2026-05-06 18:53 44.68395 9.01899 15513 ft 341 kts 178°
2026-05-06 18:53 44.66030 9.02128 15093 ft 339 kts 178°
2026-05-06 18:54 44.63684 9.02361 14663 ft 337 kts 178°
2026-05-06 18:54 44.61348 9.02609 14237 ft 334 kts 177°
2026-05-06 18:54 44.59063 9.02862 13805 ft 332 kts 177°
2026-05-06 18:54 44.56738 9.03132 13325 ft 330 kts 177°
2026-05-06 18:55 44.54454 9.03401 12880 ft 329 kts 176°
2026-05-06 18:55 44.52208 9.03669 12443 ft 327 kts 177°
2026-05-06 18:55 44.49951 9.03934 11981 ft 325 kts 176°
2026-05-06 18:55 44.47700 9.04195 11567 ft 323 kts 177°
2026-05-06 18:56 44.45468 9.04454 11119 ft 321 kts 176°
2026-05-06 18:56 44.43241 9.04714 10661 ft 318 kts 176°
2026-05-06 18:56 44.41057 9.04970 10434 ft 309 kts 176°
2026-05-06 18:56 44.38944 9.05223 10175 ft 302 kts 176°
2026-05-06 18:57 44.36889 9.05469 9917 ft 295 kts 176°
2026-05-06 18:57 44.34861 9.05712 9674 ft 289 kts 176°
2026-05-06 18:57 44.32900 9.05949 9369 ft 276 kts 176°
2026-05-06 18:57 44.31023 9.06174 8994 ft 264 kts 176°
2026-05-06 18:58 44.29241 9.06673 8576 ft 259 kts 162°
2026-05-06 18:58 44.27651 9.07764 8043 ft 258 kts 147°
2026-05-06 18:58 44.26217 9.09270 7548 ft 258 kts 144°
2026-05-06 18:58 44.24787 9.10790 7201 ft 256 kts 144°
2026-05-06 18:59 44.23375 9.12290 6939 ft 250 kts 144°
2026-05-06 18:59 44.22012 9.13739 6684 ft 245 kts 144°
2026-05-06 18:59 44.20891 9.15470 6329 ft 247 kts 117°
2026-05-06 18:59 44.20543 9.17772 6056 ft 244 kts 85°
2026-05-06 19:00 44.21081 9.19979 5815 ft 241 kts 59°
2026-05-06 19:00 44.22015 9.21914 5562 ft 239 kts 54°
2026-05-06 19:00 44.23087 9.23678 5309 ft 238 kts 36°
2026-05-06 19:00 44.24036 9.24425 5151 ft 236 kts 20°
2026-05-06 19:01 44.26161 9.24756 5003 ft 234 kts 346°
2026-05-06 19:01 44.27630 9.23883 5015 ft 230 kts 327°
2026-05-06 19:01 44.29015 9.22742 4911 ft 231 kts 327°
2026-05-06 19:01 44.30394 9.21600 4761 ft 230 kts 327°
2026-05-06 19:02 44.31773 9.20457 4623 ft 231 kts 327°
2026-05-06 19:02 44.33074 9.19216 4509 ft 229 kts 314°
2026-05-06 19:02 44.33992 9.17434 4387 ft 224 kts 291°
2026-05-06 19:02 44.34483 9.15364 4261 ft 225 kts 285°
2026-05-06 19:03 44.34951 9.13300 4150 ft 219 kts 285°
2026-05-06 19:03 44.35399 9.11274 3901 ft 217 kts 285°
2026-05-06 19:03 44.35832 9.09281 3606 ft 210 kts 285°
2026-05-06 19:03 44.36248 9.07365 3358 ft 199 kts 285°
2026-05-06 19:04 44.36638 9.05569 3058 ft 191 kts 285°
2026-05-06 19:04 44.37014 9.03839 2783 ft 182 kts 285°
2026-05-06 19:04 44.37373 9.02185 2535 ft 174 kts 284°
2026-05-06 19:04 44.37721 9.00574 2310 ft 172 kts 285°
2026-05-06 19:05 44.38064 8.98987 2062 ft 169 kts 285°
2026-05-06 19:05 44.38402 8.97425 1827 ft 163 kts 285°
2026-05-06 19:05 44.38713 8.95989 1619 ft 151 kts 284°
2026-05-06 19:05 44.39013 8.94594 1411 ft 148 kts 284°
2026-05-06 19:06 44.39310 8.93217 1207 ft 148 kts 285°
2026-05-06 19:06 44.39616 8.91826 1023 ft 150 kts 287°
2026-05-06 19:06 44.39945 8.90425 786 ft 153 kts 284°
2026-05-06 19:06 44.40240 8.89017 597 ft 148 kts 284°
2026-05-06 19:07 44.40514 8.87645 362 ft 144 kts 284°
2026-05-06 19:07 44.40691 8.86760 221 ft 143 kts 283°
2026-05-06 19:07 44.41032 8.85011 18 ft 128 kts 284°
2026-05-06 19:07 44.41205 8.84131 23 ft 60 kts 285°
2026-05-06 19:08 44.41278 8.83833 20 ft 19 kts 309°
2026-05-06 19:08 44.41364 8.83743 18 ft 12 kts 352°
2026-05-06 19:08 44.41419 8.83806 18 ft 10 kts 79°
2026-05-06 19:08 44.41406 8.83891 19 ft 8 kts 105°
2026-05-06 19:09 44.41393 8.83962 19 ft 8 kts 105°
2026-05-06 19:09 44.41376 8.84050 18 ft 10 kts 105°
2026-05-06 19:09 44.41358 8.84145 16 ft 10 kts 105°
2026-05-06 19:09 44.41341 8.84234 19 ft 9 kts 104°
2026-05-06 19:10 44.41324 8.84315 18 ft 8 kts 107°
2026-05-06 19:10 44.41317 8.84408 20 ft 9 kts 66°
2026-05-06 19:10 44.41356 8.84486 20 ft 11 kts 53°
2026-05-06 19:10 44.41409 8.84582 18 ft 7 kts 53°
2026-05-06 19:11 44.41419 8.84645 18 ft 6 kts 98°
2026-05-06 19:11 44.41396 8.84726 20 ft 11 kts 107°
2026-05-06 19:11 44.41377 8.84822 18 ft 9 kts 105°
2026-05-06 19:11 44.41361 8.84906 18 ft 9 kts 105°
2026-05-06 19:12 44.41345 8.84988 18 ft 9 kts 104°
2026-05-06 19:12 44.41328 8.85086 18 ft 12 kts 104°
2026-05-06 19:12 44.41315 8.85152 18 ft 0 kts 105°
2026-05-06 19:13 44.41315 8.85154 18 ft 2 kts 105°
2026-05-06 19:13 44.41312 8.85202 18 ft 5 kts 65°
2026-05-06 19:13 44.41340 8.85217 18 ft 3 kts 13°
2026-05-06 19:14 44.41360 8.85224 18 ft 3 kts 14°
2026-05-06 19:14 44.41368 8.85228 18 ft 0 kts 15°